STARLINK-2299, 48029

Orbit data source: Space-Track

STARLINK-2299, 48029 is a payload satellite owned by SpaceX/Seattle (US) in LEO that was launched on Wed, 24 Mar 2021 UTC via an FALCON 9 launch vehicle from the Air Force Eastern Test Range (AFETR). Payload-class satellites include a variety of spacecraft equipped with specific instruments for various scientific and technological missions. These include communications satellites like Starlink; space stations such as the ISS; scientific satellites like the Hubble; Earth observation satellites from companies like Planet Labs, Umbra, and HawkEye 360; GPS; miniature CubeSats for education and research; and military/defense satellites.

Loading next visibility...
Identifier
48029, 2021-024BE
Orbit
LEO
Country
Flag of USUS
Related business
Manufacturer
SpaceX/Seattle
Mission
Partially operational Commercial Communications
Bus & Motor
STARLINK, Unknown motor
Mass
260 kg wet, ~248 kg dry
Launch date (UTC)
2021-03-24 (5 years ago)
Launch vehicle
FALCON 9
Launch site
Air Force Eastern Test Range (AFETR)
Object type
Payload
Rocket body
Debris
Shape & HBR
Box + 1 Pan, 10.1 m
Radar Cross Section
13.562 m², Large (>1 m²)

Expand to show TLE details & history
Last TLE update: 12 hours ago

TLE from 12 hours ago
0 STARLINK-2299
1 48029U 21024BE  26130.16120159  .00050465  00000-0  84361-3 0  9994
2 48029  53.1177  42.2531 0002554 170.5359 189.5699 15.51435435284098
Epoch: 2026-05-10T03:52Z
TLE epoch observation values (Epoch: 2026-05-10T03:52:07.817Z)
Latitude
-0.00002°
Longitude
116.25226°
Altitude
415.148 km
Speed
7.662 km/s
True Right ascension
02h 49m 00s
True Declination
0° 00' 00"
Sunlit
Object was in daylight at epoch
Visualization orbit readout
Latitude
Unknown
Longitude
Unknown
Altitude
Unknown
Speed
Unknown
Apparent Right ascension
Unknown
Apparent Declination
Unknown
Sunlit
N/A
Visualization observer readout
Local Sidereal Time
00:23:01
Azimuth
Unknown
Elevation
Unknown
Doppler factor
Unknown
Orbital elements
Apogee altitude
414.534 km
Perigee altitude
411.065 km
Semi-major axis
6,790.937 km
Eccentricity
0.00026
Inclination
53.1177°
RAAN
42.2531°
Arg. of periapsis
170.5359°
True anomaly
189.56504°
Mean anomaly
189.5699°
Eccentric anomaly
189.56747°
Mean motion
3.87836 °/min
Orbital period
92.82 mins
BSTAR
0.00084361
Loading maneuver chart data...
Computing Atmospheric mass density...

Documentation

Showing up to 5 results
|